Terminal Aerodrome Forecast
Issued by NWS

Home | Current Version | Previous Version | Text Only | Print | Product List | Glossary On
Versions: 1 2 3 4 5 6 7 8 9 10 11 12
000
FTUS42 TJSJ 282340
TAFJSJ
TAF
TJSJ 282340Z 2900/2924 15005KT P6SM FEW040 SCT060 SCT100
     FM291300 09012KT P6SM FEW025 SCT060 SCT120
     FM292200 07014G20KT P6SM VCSH SCT022 BKN050=

USA.gov is the U.S. government's official web portal to all federal, state and local government web resources and services.